Chattanooga, TN

4:43 PM EST on November 17, 2017 (GMT -0500)
Lovell

Weather History for KCHA - June, 2013

Change the Weather History Date:

Wednesday, June 26, 2013

  Actual Average Record
Temperature  
Mean Temperature 83 °F 79 °F  
Max Temperature 92 °F 89 °F 101 °F (1988)
Min Temperature 73 °F 68 °F 45 °F (1974)
Cooling Degree Days 18 14  
Month to date cooling degree days 338 289  
Year to date cooling degree days 514 485  
Since 1 June cooling degree days 338 289  
Growing Degree Days 32 (Base 50)    
Moisture  
Dew Point 70 °F    
Average Humidity 70    
Maximum Humidity 93    
Minimum Humidity 47    
Precipitation  
Precipitation T in 0.13 in 3.72 in (1994)
Month to date precipitation 3.80 3.45  
Year to date precipitation 38.47 26.27  
Snow  
Snow 0.00 in - - ()
Month to date snowfall 0.0  
Since 1 June snowfall 0.0  
Snow Depth 0.00 in    
Sea Level Pressure  
Sea Level Pressure 29.98 in    
Wind  
Wind Speed 6 mph (SSW)    
Max Wind Speed 16 mph    
Max Gust Speed 20 mph    
Visibility 10 miles    
Events      
T = Trace of Precipitation, MM = Missing Value Source: NWS Daily Summary

Daily Weather History Graph

Daily Weather History Graph

Search for Another Location

Airport or City:

Trip Planner

Search our weather history database for the weather conditions in past years. The results will help you decide how hot, cold, wet, or windy it might be!

Date:

Astronomy

Jun. 26, 2013 Rise Set
Actual Time 6:28 AM EDT 8:58 PM EDT
Civil Twilight 5:58 AM EDT 9:28 PM EDT
Nautical Twilight 5:22 AM EDT 10:05 PM EDT
Astronomical Twilight 4:41 AM EDT 10:45 PM EDT
Moon 11:32 PM EDT (6/26) 10:10 AM EDT (6/26)
Length of Visible Light 15h 29m
Length of Day
14h 30m
Waning Gibbous, 85% of the Moon is Illuminated
Jun 26
Waning Gibbous
Jun 30
Last Quarter
Jul 8
New
Jul 15
First Quarter
Jul 22
Full

Hourly Weather History & Observations

Time (EDT) Temp. Heat Index Dew Point Humidity Pressure Visibility Wind Dir Wind Speed Gust Speed Precip Events Conditions
12:53 AM 78.1 °F - 71.1 °F 79% 30.02 in 10.0 mi SSW 3.5 mph - N/A   Clear
1:53 AM 77.0 °F - 71.1 °F 82% 30.01 in 10.0 mi Calm Calm - N/A   Clear
2:53 AM 75.0 °F - 71.1 °F 87% 29.99 in 10.0 mi Calm Calm - N/A   Clear
3:53 AM 73.9 °F - 71.1 °F 91% 29.99 in 10.0 mi Calm Calm - N/A   Clear
4:53 AM 73.9 °F - 71.1 °F 91% 30.00 in 10.0 mi Calm Calm - N/A   Clear
5:53 AM 73.0 °F - 70.0 °F 90% 30.02 in 10.0 mi Calm Calm - N/A   Scattered Clouds
6:53 AM 73.0 °F - 70.0 °F 90% 30.04 in 10.0 mi West 3.5 mph - N/A   Mostly Cloudy
7:53 AM 75.0 °F - 71.1 °F 87% 30.06 in 10.0 mi Calm Calm - N/A   Mostly Cloudy
8:53 AM 78.1 °F - 71.1 °F 79% 30.05 in 10.0 mi SSW 5.8 mph - N/A   Mostly Cloudy
9:53 AM 80.1 °F 83.6 °F 71.1 °F 74% 30.05 in 10.0 mi SW 3.5 mph - N/A   Mostly Cloudy
10:53 AM 84.0 °F 89.0 °F 71.1 °F 65% 30.03 in 10.0 mi SW 12.7 mph - N/A   Mostly Cloudy
11:53 AM 87.1 °F 92.8 °F 71.1 °F 59% 30.04 in 10.0 mi WNW 6.9 mph - N/A   Mostly Cloudy
12:53 PM 88.0 °F 93.8 °F 71.1 °F 57% 30.01 in 10.0 mi SSW 8.1 mph 18.4 mph 0.00 in   Mostly Cloudy
1:53 PM 89.1 °F 92.9 °F 68.0 °F 50% 30.00 in 10.0 mi SW 10.4 mph 18.4 mph N/A   Mostly Cloudy
2:53 PM 90.0 °F 92.8 °F 66.9 °F 46% 29.96 in 10.0 mi SSW 12.7 mph - N/A   Mostly Cloudy
3:53 PM 90.0 °F 93.6 °F 68.0 °F 48% 29.94 in 10.0 mi SSW 9.2 mph - N/A   Mostly Cloudy
4:53 PM 91.0 °F 95.2 °F 68.0 °F 47% 29.94 in 10.0 mi WSW 11.5 mph - N/A   Mostly Cloudy
5:53 PM 91.0 °F 95.6 °F 69.1 °F 48% 29.90 in 10.0 mi SW 10.4 mph 18.4 mph N/A   Mostly Cloudy
6:53 PM 90.0 °F 93.6 °F 68.0 °F 48% 29.89 in 10.0 mi SSW 9.2 mph - N/A   Mostly Cloudy
7:53 PM 89.1 °F 94.1 °F 70.0 °F 53% 29.89 in 10.0 mi SW 9.2 mph - N/A   Mostly Cloudy
8:53 PM 84.9 °F 91.4 °F 73.0 °F 67% 29.90 in 10.0 mi South 5.8 mph - N/A   Mostly Cloudy
9:53 PM 82.9 °F 88.8 °F 73.0 °F 72% 29.88 in 10.0 mi South 6.9 mph - N/A   Scattered Clouds
10:53 PM 82.0 °F 87.4 °F 73.0 °F 74% 29.90 in 10.0 mi SSE 5.8 mph - N/A   Scattered Clouds
11:53 PM 81.0 °F 85.8 °F 73.0 °F 77% 29.95 in 10.0 mi South 4.6 mph - N/A   Scattered Clouds